Probability
0 0 0 0 0 0 0 0 0 0 0 0 0 0 0 0 0 0 0 0 0 10 29 52 55 52 45 45 45 48 52 52 52 52 55 45 45 45 45 45 42 35 39 32 23 13 16 13 13
0 0 0 0 0 0 0 0 0 0 0 0 0 0 0 0 0 0 0 3 6 16 26 45 52 52 39 45 45 48 45 45 48 52 45 45 42 45 45 39 39 32 32 29 19 16 16 16 13
0 0 0 0 0 0 0 0 0 0 0 0 0 0 0 0 0 0 0 3 10 13 29 42 45 48 42 42 45 42 42 42 45 45 45 42 45 42 42 35 32 29 29 23 19 16 23 16 16
0 0 0 0 0 0 0 0 0 0 0 0 0 0 0 0 0 0 0 3 6 16 23 35 42 45 42 45 45 42 39 42 45 42 39 45 35 35 35 39 35 32 23 23 16 16 16 16 10
0 0 0 0 0 0 0 0 0 0 0 0 0 0 0 0 0 0 3 6 6 10 23 29 35 39 42 45 42 42 39 42 42 39 35 39 35 32 29 35 29 23 23 19 13 6 10 16 10
0 0 0 0 0 0 0 0 0 0 0 0 0 0 0 0 0 0 0 3 3 13 19 29 35 35 35 39 39 35 35 42 42 35 39 42 35 29 19 32 26 23 23 16 13 6 6 10 6
0 0 0 0 0 0 0 0 0 0 0 0 0 0 0 0 0 0 0 3 6 6 13 16 23 26 26 32 26 32 32 32 39 32 32 32 32 26 23 23 23 19 16 13 16 10 10 10 6
0 0 0 0 0 0 0 0 0 0 0 0 0 0 0 0 0 0 0 3 3 6 10 6 13 13 10 16 16 13 23 29 26 29 19 13 19 16 13 13 10 16 16 16 13 13 10 10 3
0 0 0 0 0 0 0 0 0 0 0 0 0 0 0 0 0 0 3 3 0 0 6 6 3 6 6 6 10 10 3 10 6 6 3 3 3 3 6 0 3 3 13 16 13 10 6 0 0
0 0 0 0 0 0 0 0 0 0 0 0 0 0 0 0 0 0 3 3 0 0 0 3 0 3 6 3 0 3 0 0 0 0 0 0 3 0 0 0 0 0 0 0 6 3 3 0 0
0 0 0 0 0 0 0 0 0 0 0 0 0 0 0 0 0 0 0 0 0 0 0 0 0 0 0 0 0 0 0 0 0 0 0 0 0 0 0 0 0 0 0 0 0 0 0 0 0
0 0 0 0 0 0 0 0 0 0 0 0 0 0 0 0 0 0 0 0 0 0 0 0 0 0 0 0 0 0 0 0 0 0 0 0 0 0 0 0 0 0 0 0 0 0 0 0 0
0 0 0 0 0 0 0 0 0 0 0 0 0 0 0 0 0 0 0 0 0 0 0 0 0 0 0 0 0 0 0 0 0 0 0 0 0 0 0 0 0 0 0 0 0 0 0 0 0
0 0 0 0 0 0 0 0 0 0 0 0 0 0 0 0 0 0 0 0 0 0 0 0 0 0 0 0 0 0 0 0 0 0 0 0 0 0 0 0 0 0 0 0 0 0 0 0 0
0 0 0 0 0 0 0 0 0 0 0 0 0 0 0 0 0 0 0 0 0 0 0 0 0 0 0 0 0 0 0 0 0 0 0 0 0 0 0 0 0 0 0 0 0 0 0 0 0
0 0 0 0 0 0 0 0 0 0 0 0 0 0 0 0 0 0 0 0 0 0 0 0 0 0 0 0 0 0 0 0 0 0 0 0 0 0 0 0 0 0 0 0 0 0 0 0 0
0 0 0 0 0 0 0 0 0 0 0 0 0 0 0 0 0 0 0 0 0 0 0 0 0 0 0 0 0 0 0 0 0 0 0 0 0 0 0 0 0 0 0 0 0 0 0 0 0
0 0 0 0 0 0 0 0 0 0 0 0 0 0 0 0 0 0 0 0 0 0 0 0 0 0 0 0 0 0 0 0 0 0 0 0 0 0 0 0 0 0 0 0 0 0 0 0 0
0 0 0 0 0 0 0 0 0 0 0 0 0 0 0 0 0 0 0 0 0 0 0 0 0 0 0 0 0 0 0 0 0 0 0 0 0 0 0 0 0 0 0 0 0 0 0 0 0
0 0 0 0 0 0 0 0 0 0 0 0 0 0 0 0 0 0 0 0 0 0 0 0 0 0 0 0 0 0 0 0 0 0 0 0 0 0 0 0 0 0 0 0 0 0 0 0 0
0 0 0 0 0 0 0 0 0 0 0 0 0 0 0 0 0 0 0 0 0 0 0 0 0 0 0 0 0 0 0 0 0 0 0 0 0 0 0 0 0 0 0 0 0 0 0 0 0
0 0 0 0 0 0 0 0 0 0 0 0 0 0 0 0 0 0 0 0 0 0 0 0 0 0 0 0 0 0 0 0 0 0 0 0 0 0 0 0 0 0 0 0 0 0 0 0 0
0 0 0 0 0 0 0 0 0 0 0 0 0 0 0 0 0 0 0 0 0 0 0 0 0 0 0 0 0 0 0 0 0 0 0 0 0 0 0 0 0 0 0 0 0 0 0 0 0
0 0 0 0 0 0 0 0 0 0 0 0 0 0 0 0 0 0 0 0 0 0 0 0 0 0 0 0 0 0 0 0 0 0 0 0 0 0 0 0 0 0 0 0 0 0 0 0 0
0 0 0 0 0 0 0 0 0 0 0 0 0 0 0 0 0 0 0 0 0 0 0 0 0 0 0 0 0 0 0 0 0 0 0 0 0 0 0 0 0 0 0 0 0 0 0 0 0
0 0 0 0 0 0 0 0 0 0 0 0 0 0 0 0 0 0 0 0 0 0 0 0 0 0 0 0 0 0 0 0 0 0 0 0 0 0 0 0 0 0 0 0 0 0 0 0 0
0 0 0 0 0 0 0 0 0 0 0 0 0 0 0 0 0 0 0 0 0 0 0 0 0 0 0 0 0 0 0 0 0 0 0 0 0 0 0 0 0 0 0 0 0 0 0 0 0
0 0 0 0 0 0 0 0 0 0 0 0 0 0 0 0 0 0 0 0 0 0 0 0 0 0 0 0 0 0 0 0 0 0 0 0 0 0 0 0 0 0 0 0 0 0 0 0 0
0 0 0 0 0 0 0 0 0 0 0 0 0 0 0 0 0 0 0 0 0 0 0 0 0 0 0 0 0 0 0 0 0 0 0 0 0 0 0 0 0 0 0 0 0 0 0 0 0
0 0 0 0 0 0 0 0 0 0 0 0 0 0 0 0 0 0 0 0 0 0 0 0 0 0 0 0 0 0 0 0 0 0 0 0 0 0 0 0 0 0 0 0 0 0 0 0 0
Height
5819 5818 5818 5818 5818 5816 5816 5816 5816 5816 5815 5815 5815 5815 5816 5817 5819 5822 5821 5822 5823 5825 5826 5827 5829 5830 5832 5833 5835 5837 5838 5840 5841 5843 5844 5845 5846 5848 5849 5849 5850 5851 5852 5853 5854 5856 5857 5858 5859
5814 5814 5814 5813 5811 5811 5811 5810 5810 5810 5810 5809 5809 5809 5809 5810 5812 5813 5814 5815 5817 5819 5820 5822 5824 5825 5827 5829 5831 5832 5834 5836 5838 5839 5841 5842 5843 5844 5846 5846 5847 5848 5849 5851 5852 5853 5855 5856 5857
5809 5809 5809 5807 5805 5805 5805 5804 5804 5803 5803 5802 5802 5802 5802 5803 5805 5806 5807 5809 5811 5813 5814 5816 5818 5820 5821 5823 5826 5828 5830 5832 5834 5835 5837 5838 5840 5841 5842 5843 5844 5845 5846 5848 5849 5851 5852 5854 5855
5805 5804 5803 5801 5800 5799 5798 5797 5797 5796 5796 5796 5796 5795 5795 5796 5797 5799 5800 5801 5803 5805 5807 5809 5811 5813 5815 5818 5820 5822 5824 5827 5829 5831 5833 5834 5836 5837 5839 5839 5841 5842 5843 5845 5846 5848 5849 5851 5853
5800 5798 5797 5795 5794 5793 5791 5790 5790 5790 5789 5789 5789 5789 5788 5789 5790 5791 5792 5794 5796 5798 5800 5802 5804 5806 5808 5811 5813 5816 5819 5821 5823 5826 5828 5830 5832 5833 5835 5836 5837 5838 5840 5842 5843 5845 5847 5848 5850
5795 5793 5792 5790 5789 5787 5786 5785 5784 5783 5783 5783 5783 5783 5782 5782 5782 5783 5784 5786 5787 5790 5792 5795 5797 5799 5801 5804 5807 5809 5812 5815 5818 5820 5823 5825 5827 5829 5830 5832 5833 5835 5836 5838 5840 5842 5844 5845 5847
5791 5789 5787 5785 5784 5782 5781 5779 5778 5777 5776 5776 5776 5776 5775 5775 5775 5775 5776 5777 5779 5781 5783 5786 5788 5791 5793 5796 5799 5802 5805 5809 5811 5814 5817 5820 5822 5824 5825 5827 5829 5831 5833 5834 5836 5838 5840 5842 5844
5786 5785 5782 5781 5779 5777 5776 5774 5773 5772 5771 5770 5769 5768 5768 5768 5767 5767 5768 5769 5770 5773 5775 5777 5779 5782 5785 5788 5792 5795 5798 5801 5805 5808 5811 5814 5816 5818 5820 5822 5824 5826 5828 5830 5832 5834 5836 5838 5840
5781 5781 5778 5776 5774 5772 5770 5768 5767 5766 5764 5763 5762 5761 5760 5760 5759 5759 5760 5761 5762 5764 5765 5767 5771 5773 5777 5780 5783 5787 5790 5793 5797 5800 5804 5807 5811 5813 5814 5817 5819 5821 5824 5826 5828 5830 5832 5834 5837
5777 5775 5773 5771 5769 5767 5764 5763 5761 5760 5758 5757 5755 5753 5752 5752 5751 5751 5751 5752 5754 5755 5756 5758 5761 5765 5769 5772 5775 5779 5782 5785 5789 5793 5796 5800 5804 5807 5809 5811 5814 5816 5819 5821 5823 5826 5828 5830 5832
5772 5770 5768 5765 5763 5761 5759 5757 5755 5753 5752 5750 5748 5746 5744 5744 5743 5743 5743 5744 5745 5746 5747 5749 5752 5756 5760 5764 5767 5771 5774 5777 5781 5785 5789 5793 5797 5800 5803 5805 5808 5811 5813 5816 5819 5821 5823 5826 5828
5767 5764 5762 5760 5757 5755 5753 5751 5749 5747 5746 5743 5741 5739 5737 5736 5736 5736 5736 5736 5737 5738 5739 5741 5743 5746 5751 5755 5759 5762 5766 5770 5773 5777 5781 5785 5789 5793 5797 5799 5802 5805 5808 5811 5814 5817 5819 5821 5824
5762 5760 5757 5754 5752 5749 5747 5745 5743 5741 5739 5736 5733 5732 5730 5729 5729 5728 5727 5727 5728 5729 5731 5733 5735 5737 5741 5746 5750 5754 5758 5761 5765 5769 5773 5778 5782 5786 5790 5793 5796 5799 5802 5805 5808 5811 5814 5816 5819
5757 5755 5752 5750 5747 5744 5742 5740 5737 5735 5732 5729 5726 5725 5723 5721 5720 5720 5719 5719 5719 5720 5721 5723 5725 5727 5731 5736 5741 5745 5749 5753 5757 5761 5765 5770 5774 5779 5783 5786 5790 5793 5796 5799 5802 5805 5808 5811 5813
5753 5751 5748 5745 5742 5740 5737 5735 5732 5728 5725 5722 5720 5718 5716 5714 5713 5711 5711 5710 5711 5712 5713 5714 5716 5719 5722 5727 5732 5736 5740 5744 5749 5752 5757 5761 5766 5771 5775 5779 5783 5787 5790 5793 5796 5799 5802 5805 5807
5748 5746 5744 5741 5737 5734 5733 5731 5726 5722 5719 5716 5713 5711 5709 5707 5705 5704 5703 5703 5702 5703 5705 5706 5708 5710 5714 5717 5723 5727 5731 5735 5740 5743 5748 5753 5758 5763 5767 5771 5775 5779 5783 5786 5789 5792 5795 5799 5801
5744 5742 5739 5737 5733 5729 5727 5725 5721 5717 5713 5710 5707 5705 5703 5701 5699 5697 5696 5696 5696 5696 5697 5698 5700 5703 5706 5709 5714 5718 5722 5726 5730 5734 5738 5744 5749 5754 5759 5763 5768 5772 5776 5779 5782 5785 5789 5792 5795
5739 5737 5734 5731 5728 5724 5721 5719 5716 5711 5708 5705 5702 5700 5698 5695 5693 5691 5690 5690 5690 5690 5691 5691 5694 5696 5699 5702 5706 5709 5713 5718 5721 5725 5729 5734 5740 5746 5751 5756 5760 5765 5768 5771 5775 5778 5782 5785 5788
5734 5731 5729 5726 5722 5719 5716 5713 5710 5706 5703 5700 5697 5695 5692 5690 5688 5686 5685 5684 5684 5685 5685 5686 5688 5690 5692 5695 5699 5702 5705 5709 5712 5716 5720 5726 5731 5737 5742 5748 5753 5757 5760 5764 5767 5771 5774 5778 5781
5728 5726 5724 5721 5717 5713 5711 5708 5705 5702 5698 5695 5692 5689 5687 5685 5683 5682 5680 5680 5679 5679 5679 5680 5681 5683 5686 5688 5691 5694 5697 5700 5704 5708 5713 5718 5723 5729 5734 5739 5744 5749 5752 5756 5760 5764 5767 5770 5773
5723 5721 5718 5715 5712 5708 5705 5704 5701 5697 5694 5691 5688 5685 5683 5681 5679 5677 5676 5675 5675 5674 5674 5675 5676 5677 5679 5682 5683 5686 5690 5693 5697 5700 5705 5710 5715 5720 5726 5731 5736 5741 5745 5749 5753 5756 5760 5763 5766
5717 5715 5712 5709 5706 5704 5701 5697 5697 5693 5690 5686 5684 5682 5679 5677 5675 5673 5672 5671 5670 5670 5669 5669 5670 5671 5673 5675 5678 5680 5683 5686 5690 5693 5697 5702 5708 5713 5718 5723 5728 5733 5737 5741 5745 5749 5752 5755 5758
5711 5709 5707 5704 5701 5699 5696 5692 5693 5689 5686 5683 5680 5677 5675 5673 5671 5669 5668 5666 5666 5665 5665 5664 5665 5666 5667 5669 5672 5674 5676 5679 5682 5686 5690 5695 5700 5705 5710 5715 5720 5724 5729 5733 5736 5740 5743 5746 5749
5705 5703 5700 5698 5695 5694 5692 5688 5686 5684 5681 5678 5676 5673 5671 5669 5667 5665 5664 5662 5662 5661 5660 5660 5660 5660 5661 5663 5665 5667 5669 5672 5675 5679 5683 5687 5692 5697 5702 5707 5711 5716 5720 5724 5728 5731 5734 5737 5740
5698 5697 5694 5691 5689 5688 5686 5682 5682 5679 5676 5673 5671 5669 5667 5666 5664 5662 5660 5659 5658 5657 5656 5656 5656 5656 5656 5657 5659 5661 5663 5665 5668 5671 5675 5680 5684 5689 5693 5698 5702 5707 5711 5714 5718 5721 5724 5727 5730
5691 5690 5688 5685 5683 5682 5680 5677 5678 5674 5671 5668 5666 5665 5663 5661 5660 5658 5656 5655 5654 5653 5652 5652 5651 5651 5651 5652 5654 5655 5657 5659 5662 5665 5668 5672 5677 5681 5685 5689 5693 5698 5702 5706 5709 5712 5715 5717 5720
5683 5682 5681 5678 5675 5674 5673 5673 5672 5669 5666 5664 5662 5660 5659 5657 5656 5654 5652 5651 5650 5649 5648 5647 5646 5646 5646 5647 5648 5649 5651 5653 5656 5658 5661 5665 5669 5674 5677 5681 5685 5689 5693 5696 5700 5703 5705 5707 5710
5676 5674 5673 5670 5667 5666 5666 5666 5666 5664 5661 5659 5657 5655 5654 5652 5651 5650 5648 5646 5645 5644 5643 5642 5641 5641 5641 5642 5643 5644 5645 5647 5649 5652 5654 5658 5662 5666 5669 5672 5676 5680 5683 5686 5689 5692 5695 5697 5699
5668 5667 5664 5663 5661 5659 5657 5661 5660 5658 5655 5653 5652 5650 5648 5647 5646 5644 5643 5642 5641 5639 5638 5637 5637 5636 5637 5637 5637 5638 5639 5641 5643 5645 5647 5650 5654 5657 5661 5664 5666 5669 5672 5676 5679 5681 5684 5686 5688
5659 5658 5657 5656 5654 5652 5650 5654 5653 5651 5649 5647 5646 5644 5643 5642 5640 5639 5638 5637 5636 5635 5634 5632 5632 5631 5631 5631 5632 5632 5633 5635 5636 5638 5640 5643 5646 5649 5651 5654 5657 5659 5662 5665 5668 5671 5673 5675 5677
Wind_Speed
18 18 19 20 21 22 22 22 21 22 23 23 25 25 25 26 26 26 26 25 25 25 25 25 25 25 25 25 25 25 24 23 22 21 20 20 19 19 18 17 17 17 16 16 15 14 14 13 12
19 19 20 21 22 23 23 23 23 23 23 23 25 26 26 27 26 26 27 26 26 26 27 27 28 28 28 28 27 27 26 25 24 23 23 22 21 20 20 19 18 18 18 18 17 16 15 14 13
19 20 21 22 22 23 23 23 23 23 24 24 25 26 27 27 27 27 27 28 28 28 29 29 29 30 30 30 29 29 29 28 27 25 25 24 23 22 21 21 20 20 19 19 18 18 17 16 14
19 20 21 22 22 22 22 23 23 23 24 24 24 26 27 27 28 28 28 29 29 29 30 30 31 32 32 32 31 31 31 31 29 28 26 26 25 24 23 23 22 21 21 20 20 19 18 17 16
19 20 20 20 20 21 21 22 22 22 23 24 24 25 27 28 29 29 30 30 30 30 31 32 32 33 34 34 33 33 34 33 32 30 29 28 27 26 25 25 24 23 22 22 21 20 20 19 18
19 19 19 19 19 20 20 21 21 21 22 23 25 26 27 29 30 30 31 32 32 31 32 32 33 34 34 35 35 35 35 35 34 32 31 30 29 28 27 27 26 25 23 22 22 22 21 20 19
18 17 17 17 18 19 19 20 20 20 21 22 24 26 27 28 30 31 31 32 33 33 32 33 35 35 36 36 36 36 37 37 36 34 33 32 31 30 29 29 28 27 25 23 23 23 22 22 20
17 18 17 17 18 18 19 19 20 20 21 22 23 25 26 27 29 30 31 32 32 34 34 33 36 36 36 37 37 38 38 38 38 37 35 34 32 31 31 31 30 28 27 26 25 24 24 23 22
18 18 18 18 18 19 19 19 20 20 21 22 23 24 26 27 27 29 30 31 32 33 35 34 36 37 37 37 37 38 39 39 39 39 38 36 35 34 33 33 32 30 29 28 27 26 24 24 23
19 19 19 19 19 19 19 20 20 21 22 23 25 25 25 26 26 27 29 31 32 33 34 35 35 37 38 37 37 37 38 39 40 40 39 38 37 35 34 34 34 32 31 29 28 27 26 25 24
19 20 20 20 20 20 19 20 21 21 22 23 24 25 25 25 25 26 28 29 31 32 33 35 36 36 37 37 37 37 38 39 39 39 40 39 38 38 35 35 35 34 33 31 31 29 27 27 26
20 20 20 20 20 20 19 20 21 21 22 23 23 23 24 25 25 26 27 28 30 32 33 34 35 36 37 37 38 38 38 38 38 39 40 40 39 39 37 35 35 35 35 33 32 31 29 28 27
19 19 20 20 20 20 20 21 21 21 22 22 23 23 23 24 24 25 27 27 29 31 32 33 35 36 37 37 38 38 38 39 38 39 40 41 41 40 39 37 36 36 35 34 33 33 32 30 29
19 19 19 20 20 20 20 20 21 21 21 22 22 22 22 24 25 25 26 27 28 29 31 32 34 35 35 37 37 37 37 38 38 40 41 41 42 41 39 38 38 36 36 36 35 34 34 32 31
19 19 19 20 21 21 20 20 21 21 21 21 21 21 22 23 25 26 27 27 27 28 30 32 34 35 35 36 38 38 39 38 38 40 42 42 42 42 41 40 39 38 37 37 36 35 34 35 33
19 19 19 20 21 21 22 21 20 21 21 21 20 20 20 21 22 22 24 24 24 26 28 30 33 34 34 34 37 40 40 40 40 40 42 43 43 43 43 41 41 39 38 38 37 36 36 36 36
19 19 19 20 21 22 22 21 20 21 21 20 19 19 19 20 20 20 21 22 23 24 26 28 30 32 33 33 35 37 39 40 41 40 41 43 43 43 43 42 42 41 39 38 37 38 37 37 37
20 20 20 20 21 22 22 22 21 21 20 19 19 19 19 19 19 19 19 20 21 22 24 26 27 31 33 32 33 34 37 39 41 41 41 43 44 43 42 42 41 40 38 38 37 37 37 37 37
21 21 21 21 22 22 22 22 21 20 19 18 18 18 18 18 18 19 19 18 19 21 23 23 26 29 31 31 32 34 36 38 40 41 40 42 44 43 42 43 41 40 40 40 38 37 38 38 38
22 22 22 22 22 23 22 22 21 20 18 18 18 18 18 18 18 18 18 18 18 19 20 22 24 27 29 30 31 32 34 36 37 40 38 40 42 43 42 42 42 40 40 40 40 38 38 37 38
22 23 22 22 22 22 23 21 20 19 18 17 18 18 17 17 17 17 17 18 17 17 18 19 23 25 26 28 29 30 32 35 37 38 37 37 39 41 42 42 43 43 41 40 40 39 39 38 39
22 22 23 23 23 23 23 22 18 18 17 17 17 17 16 16 16 16 16 16 16 16 17 18 21 23 24 27 29 28 29 31 35 38 38 37 38 40 42 42 42 42 42 41 40 40 40 40 40
23 23 23 24 24 23 22 23 18 17 17 17 17 17 16 15 15 15 16 16 16 17 18 18 20 22 23 25 27 28 28 30 33 36 38 38 39 40 42 44 43 41 40 41 41 41 41 41 41
24 24 24 24 24 24 22 23 20 18 18 18 17 16 16 15 15 15 15 16 17 17 18 19 21 21 22 22 25 27 28 29 31 34 37 38 37 38 40 43 44 42 40 40 41 41 42 42 41
25 25 26 26 25 24 23 22 20 19 19 18 18 17 16 15 15 15 15 16 16 17 17 18 20 21 22 22 24 25 27 29 32 33 36 37 37 37 39 41 44 44 42 41 40 41 40 40 41
25 26 26 27 27 26 24 23 20 20 19 19 19 18 17 17 16 16 16 16 17 17 17 18 19 21 22 22 23 24 26 28 30 32 35 36 37 37 38 40 42 43 43 44 43 42 42 42 43
26 26 26 28 28 27 25 23 21 20 20 19 19 18 18 18 18 18 17 17 17 18 18 18 20 21 22 23 24 24 25 25 28 30 33 35 38 36 36 38 40 41 41 41 41 42 42 43 44
27 27 27 27 29 29 27 24 22 21 21 20 19 19 19 19 19 19 18 18 18 18 18 18 19 20 21 22 23 24 25 25 25 27 28 31 35 35 35 38 38 38 38 39 40 41 43 43 43
28 28 28 28 29 30 29 25 22 22 21 20 20 19 19 20 20 20 19 19 19 19 19 18 19 20 20 21 23 24 25 26 26 28 28 29 32 34 35 36 36 37 38 39 40 41 43 43 42
28 28 28 29 30 30 31 27 24 23 22 22 21 21 20 20 20 19 19 19 20 20 20 19 19 20 20 20 21 23 24 26 27 27 28 30 33 35 35 36 37 38 38 39 40 40 41 42 42
Wind_Direction
278 278 278 277 275 274 275 274 272 271 268 264 261 259 258 256 255 256 257 254 251 249 247 246 244 242 241 240 238 236 235 235 235 235 235 233 231 231 228 228 225 223 222 220 218 216 215 214 213
282 281 280 278 277 277 276 275 272 271 269 266 263 261 259 257 256 255 255 253 251 248 246 245 244 243 241 240 239 237 235 235 234 235 235 234 232 230 229 227 226 224 222 222 221 218 217 216 216
286 284 282 281 280 280 277 274 272 271 269 267 264 262 260 258 257 255 254 252 250 248 246 245 245 244 242 240 238 237 236 235 235 235 235 235 233 230 230 228 227 226 224 224 224 221 218 218 219
290 288 285 284 283 281 279 276 273 270 269 266 264 261 259 258 257 255 253 252 249 247 246 245 245 244 242 240 237 236 236 235 235 235 235 234 233 232 230 229 227 227 226 226 226 223 220 220 221
295 291 288 287 284 282 281 279 276 273 269 265 263 261 259 259 258 257 255 254 251 248 245 244 244 244 243 241 238 236 236 235 235 235 234 232 232 232 231 229 229 228 228 228 227 225 223 221 222
297 294 291 290 287 285 284 283 281 276 271 268 265 262 261 261 259 257 255 254 252 249 246 244 244 243 242 240 239 237 236 235 235 234 233 232 232 232 232 229 230 230 228 228 227 225 224 224 224
297 295 293 292 290 289 287 285 284 280 276 273 269 265 264 262 259 258 256 254 252 249 247 245 243 242 241 239 238 237 235 234 234 233 232 232 232 232 232 230 229 230 229 228 226 226 226 227 227
297 295 294 294 293 291 289 287 285 283 280 278 276 272 266 264 262 259 257 254 252 250 247 245 244 242 240 239 237 237 236 235 234 233 231 231 231 232 233 231 230 230 229 229 227 226 227 229 229
298 297 296 296 295 294 292 289 287 285 283 281 280 277 272 267 265 262 258 255 253 250 247 244 243 240 239 238 237 237 237 235 234 233 231 230 231 232 233 232 231 230 229 229 228 226 228 230 230
299 299 299 297 297 295 293 290 288 286 286 285 281 279 275 271 268 264 259 255 253 250 247 244 242 240 238 237 237 237 237 236 234 232 231 230 230 232 233 232 232 231 230 230 230 228 229 230 231
299 298 298 298 297 296 293 290 289 288 288 288 283 278 275 272 269 267 263 258 253 250 248 245 241 240 237 236 236 236 236 235 234 232 231 230 229 230 232 233 232 231 231 231 231 231 230 230 232
300 299 298 298 298 297 294 292 292 291 290 289 285 279 276 273 271 269 266 262 255 252 248 245 242 238 235 235 236 237 235 234 233 231 232 230 229 230 231 233 233 232 231 232 232 232 232 232 234
301 301 301 300 300 298 296 295 295 294 293 290 286 280 278 276 274 270 266 263 258 252 248 244 240 236 234 235 235 235 234 233 232 231 231 229 229 229 231 232 233 232 232 232 233 233 233 233 234
303 304 303 304 304 300 298 297 297 296 294 292 287 282 279 280 277 273 268 263 258 252 250 246 243 238 235 234 234 234 234 233 233 232 231 228 228 229 231 231 231 232 232 233 235 234 234 233 234
303 303 303 304 304 302 300 301 301 299 298 295 290 285 282 282 281 277 271 265 257 254 252 250 246 240 236 234 234 234 235 234 232 233 230 229 228 229 231 232 232 231 232 234 235 235 235 236 236
304 303 302 303 304 303 303 305 303 301 299 296 291 289 287 288 284 279 273 265 258 255 254 251 246 241 238 234 234 235 234 233 231 231 230 229 229 229 230 231 231 232 233 234 235 236 236 238 238
302 303 304 305 306 305 304 305 305 302 299 298 294 291 290 291 289 282 275 266 261 259 255 249 245 241 238 237 235 236 235 232 230 230 230 229 228 228 230 230 231 232 233 233 234 237 236 237 239
301 304 305 307 307 305 304 306 306 304 299 296 294 292 290 290 289 283 277 270 264 261 257 250 246 241 238 237 236 236 234 231 230 230 230 227 227 228 229 229 231 231 231 232 235 237 236 237 239
300 303 306 308 307 306 306 306 307 307 302 296 293 291 289 289 289 284 278 272 267 263 258 253 249 243 240 237 237 238 235 233 230 229 229 227 225 226 228 229 231 232 233 235 236 237 237 237 239
299 302 305 306 307 306 305 306 307 308 305 299 295 292 291 289 291 287 280 271 268 265 260 254 249 244 242 239 238 238 234 232 231 229 229 227 224 225 226 228 229 231 234 236 237 237 238 238 240
298 301 303 305 306 307 306 306 306 305 304 301 297 295 292 290 291 287 281 275 272 269 264 258 252 247 245 241 240 238 234 233 233 231 229 226 224 224 226 227 228 230 233 236 236 236 238 240 242
296 299 300 303 304 307 308 307 307 305 304 302 298 298 296 293 293 288 282 277 272 267 265 262 256 249 248 245 241 239 239 236 235 232 230 228 227 226 227 228 229 231 234 236 237 238 241 242 243
293 295 297 299 301 303 306 307 309 306 305 302 301 300 299 297 297 291 284 281 273 266 265 263 260 252 249 247 243 241 241 240 236 233 231 229 229 228 229 229 230 232 235 236 238 239 241 242 243
290 292 294 295 298 300 306 306 308 307 306 306 303 303 303 300 297 294 290 284 277 271 267 265 259 255 252 251 247 243 242 241 238 235 233 229 229 230 232 230 231 233 235 236 238 240 241 242 245
288 291 292 293 295 299 302 302 306 307 304 304 304 301 300 300 298 294 292 286 278 272 269 266 262 259 254 255 252 248 243 241 239 238 234 231 231 233 233 231 232 234 236 236 239 242 243 244 246
285 288 290 292 294 295 296 298 303 304 302 302 302 298 296 296 294 294 291 285 279 274 272 268 265 261 256 256 253 250 246 241 239 239 238 235 235 235 235 235 235 236 238 241 243 245 246 248 249
282 284 286 287 289 290 291 293 296 299 299 298 299 296 296 293 291 292 290 284 281 278 276 272 268 264 260 257 252 250 248 245 241 241 238 237 235 235 237 238 237 238 240 242 245 248 250 252 253
280 282 284 284 287 288 289 291 294 295 296 297 296 295 293 291 292 292 289 282 282 280 278 274 270 266 264 260 253 250 247 242 242 240 237 238 236 236 238 240 239 239 242 244 247 250 252 254 254
279 280 281 282 282 285 287 288 291 293 294 292 290 290 290 289 291 290 289 285 283 282 278 275 272 268 265 262 255 250 249 245 243 243 240 241 241 240 242 242 242 244 247 248 250 252 253 254 255
277 278 278 278 279 280 282 285 288 288 289 289 287 286 285 287 289 289 287 283 282 283 281 276 272 269 266 262 256 252 249 249 248 245 245 245 243 243 243 244 245 247 248 250 251 254 254 255 256